OK1JRA-6 Weather Reports


time (UTC)temp
C
wind
direction
speed
KPH
gust
KPH
rain 1hr
cm
rain 24hr
cm
rain mn
cm
humidity
%
barometer
mb
20260906023554 8 318 1.6 1.6 0.00 0.00 0.00 70 1027.2
20260906023048 8 0 0.0 1.6 0.00 0.00 0.00 69 1027.1
20260906022541 8 126 0.0 1.6 0.00 0.00 0.00 69 1027.1
20260906022035 8 135 0.0 0.0 0.00 0.00 0.00 69 1027.1
20260906021530 8 135 0.0 1.6 0.00 0.00 0.00 69 1027.1
20260906021024 8 135 0.0 1.6 0.00 0.00 0.00 69 1027.0
20260906020518 8 223 0.0 3.2 0.00 0.00 0.00 69 1026.9
20260906020010 8 225 0.0 1.6 0.00 0.00 0.00 69 1026.9
20260906015506 8 226 0.0 1.6 0.00 0.00 0.00 69 1026.9
20260906015504 8 226 0.0 1.6 0.00 0.00 0.00 69 1026.9
20260906014959 8 90 0.0 1.6 0.00 0.00 0.00 69 1026.9
20260906014452 8 120 1.6 3.2 0.00 0.00 0.00 69 1026.9
20260906013946 8 176 1.6 1.6 0.00 0.00 0.00 68 1026.9
20260906013440 8 180 0.0 1.6 0.00 0.00 0.00 68 1026.8
20260906012934 8 195 0.0 0.0 0.00 0.00 0.00 68 1026.8
20260906012427 8 315 0.0 0.0 0.00 0.00 0.00 68 1026.7
20260906011922 8 315 1.6 1.6 0.00 0.00 0.00 68 1026.8
20260906011416 8 315 0.0 1.6 0.00 0.00 0.00 68 1026.7
20260906010910 8 315 0.0 1.6 0.00 0.00 0.00 68 1026.6
20260906010404 8 180 0.0 1.6 0.00 0.00 0.00 67 1026.6
20260906005858 9 180 0.0 0.0 0.00 0.00 0.00 67 1026.5
20260906005351 9 180 0.0 0.0 0.00 0.00 0.00 67 1026.5
20260906004845 9 180 0.0 1.6 0.00 0.00 0.00 67 1026.6
20260906004338 9 114 0.0 1.6 0.00 0.00 0.00 67 1026.5
20260906003833 9 127 0.0 1.6 0.00 0.00 0.00 67 1026.5
20260906003326 9 359 0.0 1.6 0.00 0.00 0.00 67 1026.6
20260906002821 10 180 1.6 1.6 0.00 0.00 0.00 68 1026.5
20260906002315 10 180 1.6 1.6 0.00 0.00 0.00 68 1026.5
20260906001808 9 170 1.6 1.6 0.00 0.00 0.00 68 1026.4
20260906001302 9 130 0.0 0.0 0.00 0.00 0.00 66 1026.4
20260906000756 9 90 0.0 0.0 0.00 0.00 0.00 66 1026.3
20260906000249 10 113 0.0 1.6 0.00 0.00 0.00 66 1026.4
20260905235744 10 142 0.0 1.6 0.00 0.00 0.00 66 1026.3
20260905235238 10 270 0.0 1.6 0.00 0.00 0.00 66 1026.3
20260905234731 10 270 0.0 0.0 0.00 0.00 0.00 66 1026.2
20260905234225 10 270 0.0 0.0 0.00 0.00 0.00 66 1026.1
20260905233213 10 45 0.0 0.0 0.00 0.00 0.00 66 1026.1
20260905232707 10 45 0.0 1.6 0.00 0.00 0.00 66 1026.1
20260905232200 10 45 1.6 3.2 0.00 0.00 0.00 67 1026.1
20260905231654 10 0 1.6 3.2 0.00 0.00 0.00 67 1026.1
20260905231148 10 289 1.6 3.2 0.00 0.00 0.00 67 1026.0
20260905230641 10 294 1.6 3.2 0.00 0.00 0.00 66 1026.0
20260905230135 10 0 0.0 1.6 0.00 0.00 0.00 65 1026.0
20260905225630 10 0 1.6 1.6 0.00 0.00 0.00 66 1026.0
20260905225123 10 0 0.0 1.6 0.00 0.00 0.00 65 1025.9
20260905224618 10 356 0.0 1.6 0.00 0.00 0.00 65 1025.9
20260905224111 10 225 0.0 0.0 0.00 0.00 0.00 64 1025.9
20260905223605 11 167 0.0 1.6 0.00 0.00 0.00 64 1025.8
20260905223059 11 135 0.0 1.6 0.00 0.00 0.00 64 1025.7
20260905222553 11 45 0.0 0.0 0.00 0.00 0.00 63 1025.8
20260905222047 11 61 1.6 3.2 0.00 0.00 0.00 63 1025.8
20260905221541 11 196 1.6 3.2 0.00 0.00 0.00 63 1025.7
20260905221034 11 225 0.0 1.6 0.00 0.00 0.00 64 1025.7
20260905220022 11 193 1.6 1.6 0.00 0.00 0.00 64 1025.7
20260905215516 11 228 1.6 1.6 0.00 0.00 0.00 63 1025.7
20260905215010 11 292 1.6 3.2 0.00 0.00 0.00 63 1025.7
20260905214503 11 309 3.2 4.8 0.00 0.00 0.00 63 1025.7
20260905213958 11 271 1.6 1.6 0.00 0.00 0.00 63 1025.7
20260905213451 11 311 1.6 1.6 0.00 0.00 0.00 63 1025.7
20260905212945 11 301 3.2 4.8 0.00 0.00 0.00 62 1025.5
20260905212439 11 294 3.2 3.2 0.00 0.00 0.00 61 1025.5
20260905211933 12 352 1.6 1.6 0.00 0.00 0.00 61 1025.5
20260905211427 12 268 0.0 0.0 0.00 0.00 0.00 60 1025.4
20260905210920 12 349 1.6 1.6 0.00 0.00 0.00 60 1025.4
20260905210414 12 11 1.6 3.2 0.00 0.00 0.00 59 1025.3
20260905205908 12 180 1.6 1.6 0.00 0.00 0.00 60 1025.2
20260905205401 12 180 1.6 3.2 0.00 0.00 0.00 59 1025.2
20260905204856 12 180 1.6 1.6 0.00 0.00 0.00 59 1025.2
20260905204350 12 180 1.6 3.2 0.00 0.00 0.00 60 1025.1
20260905203844 12 180 1.6 1.6 0.00 0.00 0.00 59 1025.1
20260905202831 13 270 0.0 1.6 0.00 0.00 0.00 55 1025.0
20260905202325 13 349 0.0 1.6 0.00 0.00 0.00 55 1025.0
20260905201819 13 0 0.0 0.0 0.00 0.00 0.00 55 1024.9
20260905201312 13 0 0.0 1.6 0.00 0.00 0.00 54 1024.8
20260905200807 14 315 1.6 3.2 0.00 0.00 0.00 54 1024.8
20260905200300 14 315 3.2 4.8 0.00 0.00 0.00 54 1024.7
20260905195755 14 313 4.8 4.8 0.00 0.00 0.00 53 1024.7
20260905195248 15 301 3.2 4.8 0.00 0.00 0.00 52 1024.6
20260905194742 15 316 4.8 4.8 0.00 0.00 0.00 52 1024.6
20260905194236 15 301 3.2 4.8 0.00 0.00 0.00 51 1024.6
20260905193730 15 318 1.6 1.6 0.00 0.00 0.00 52 1024.5
20260905193223 15 299 3.2 4.8 0.00 0.00 0.00 52 1024.4
20260905192717 16 334 3.2 4.8 0.00 0.00 0.00 51 1024.3
20260905192212 16 331 3.2 4.8 0.00 0.00 0.00 50 1024.2
20260905191158 16 324 4.8 6.4 0.00 0.00 0.00 48 1024.3
20260905190653 16 322 4.8 4.8 0.00 0.00 0.00 47 1024.2
20260905190146 17 318 4.8 4.8 0.00 0.00 0.00 46 1024.1
20260905185641 17 318 6.4 8.0 0.00 0.00 0.00 46 1024.0
20260905185135 17 322 8.0 9.7 0.00 0.00 0.00 45 1023.9
20260905184629 17 328 6.4 8.0 0.00 0.00 0.00 45 1023.9
20260905184123 17 328 6.4 8.0 0.00 0.00 0.00 44 1023.8
20260905184121 17 328 6.4 8.0 0.00 0.00 0.00 44 1023.8
20260905183616 17 320 6.4 8.0 0.00 0.00 0.00 44 1023.8
20260905183110 18 324 8.0 9.7 0.00 0.00 0.00 43 1023.7
20260905182603 18 332 6.4 12.9 0.00 0.00 0.00 43 1023.6
20260905182057 18 323 8.0 11.3 0.00 0.00 0.00 42 1023.5
20260905181551 18 335 8.0 11.3 0.00 0.00 0.00 42 1023.5
20260905181044 18 320 8.0 11.3 0.00 0.00 0.00 42 1023.4
20260905180538 18 328 8.0 11.3 0.00 0.00 0.00 41 1023.4
20260905180033 19 321 9.7 12.9 0.00 0.00 0.00 40 1023.3
20260905175527 19 335 9.7 14.5 0.00 0.00 0.00 40 1023.3
20260905175020 20 331 9.7 12.9 0.00 0.00 0.00 40 1023.1
20260905174514 20 318 8.0 11.3 0.00 0.00 0.00 40 1023.0
20260905174007 20 319 9.7 12.9 0.00 0.00 0.00 39 1022.9
20260905173502 20 318 11.3 16.1 0.00 0.00 0.00 38 1022.8
20260905172956 21 314 11.3 16.1 0.00 0.00 0.00 38 1022.8
20260905172450 21 332 12.9 20.9 0.00 0.00 0.00 38 1022.7
20260905171943 21 336 9.7 12.9 0.00 0.00 0.00 37 1022.6
20260905171437 21 324 12.9 16.1 0.00 0.00 0.00 36 1022.5
20260905170931 22 321 11.3 16.1 0.00 0.00 0.00 35 1022.5
20260905170425 22 312 11.3 16.1 0.00 0.00 0.00 34 1022.4
20260905165918 22 315 14.5 25.7 0.00 0.00 0.00 33 1022.2
20260905165412 23 318 14.5 17.7 0.00 0.00 0.00 33 1022.1
20260905164907 23 307 11.3 17.7 0.00 0.00 0.00 33 1022.1
20260905164905 23 307 11.3 17.7 0.00 0.00 0.00 33 1022.1
20260905164400 24 317 11.3 14.5 0.00 0.00 0.00 32 1022.0
20260905164359 24 317 11.3 14.5 0.00 0.00 0.00 32 1022.0
20260905163854 24 312 11.3 14.5 0.00 0.00 0.00 31 1021.8
20260905163348 25 311 12.9 20.9 0.00 0.00 0.00 30 1021.7
20260905162841 25 319 12.9 20.9 0.00 0.00 0.00 32 1021.7
20260905162336 25 314 12.9 17.7 0.00 0.00 0.00 31 1021.5
20260905162334 25 314 12.9 17.7 0.00 0.00 0.00 31 1021.5
20260905161828 25 298 16.1 19.3 0.00 0.00 0.00 30 1021.3
20260905161323 25 298 12.9 17.7 0.00 0.00 0.00 31 1021.2
20260905160816 26 311 14.5 17.7 0.00 0.00 0.00 30 1021.2
20260905160311 26 308 12.9 19.3 0.00 0.00 0.00 30 1021.1
20260905155804 26 316 12.9 16.1 0.00 0.00 0.00 30 1021.1
20260905155258 26 310 14.5 19.3 0.00 0.00 0.00 30 1021.1
20260905154752 26 299 14.5 20.9 0.00 0.00 0.00 31 1021.0
20260905154246 26 312 14.5 20.9 0.00 0.00 0.00 29 1021.0
20260905153739 26 311 16.1 20.9 0.00 0.00 0.00 30 1020.9
20260905153234 26 313 16.1 19.3 0.00 0.00 0.00 30 1021.0
20260905153232 26 313 16.1 19.3 0.00 0.00 0.00 30 1021.0
20260905152726 25 318 14.5 17.7 0.00 0.00 0.00 31 1021.0
20260905152221 25 311 12.9 16.1 0.00 0.00 0.00 32 1021.1
20260905151715 25 318 12.9 19.3 0.00 0.00 0.00 30 1021.0
20260905151209 26 307 12.9 16.1 0.00 0.00 0.00 29 1020.8
20260905150703 26 310 14.5 22.5 0.00 0.00 0.00 28 1020.8
20260905150157 27 311 11.3 16.1 0.00 0.00 0.00 29 1020.8
20260905150155 27 311 11.3 16.1 0.00 0.00 0.00 29 1020.8
20260905145650 27 297 12.9 16.1 0.00 0.00 0.00 29 1020.7
20260905145143 28 310 14.5 24.1 0.00 0.00 0.00 29 1020.7
20260905144637 28 320 14.5 20.9 0.00 0.00 0.00 27 1020.7
20260905144132 27 309 14.5 20.9 0.00 0.00 0.00 29 1020.8
20260905143625 26 306 12.9 19.3 0.00 0.00 0.00 31 1020.8
20260905143120 26 308 12.9 17.7 0.00 0.00 0.00 31 1020.9
20260905143118 26 308 12.9 17.7 0.00 0.00 0.00 31 1020.9
20260905142107 27 311 16.1 22.5 0.00 0.00 0.00 29 1020.9
20260905141600 27 308 19.3 25.7 0.00 0.00 0.00 28 1020.9
20260905141054 28 306 16.1 20.9 0.00 0.00 0.00 26 1020.8
20260905140548 30 315 12.9 19.3 0.00 0.00 0.00 26 1020.8
20260905140042 29 310 17.7 22.5 0.00 0.00 0.00 26 1020.8
20260905135536 29 308 14.5 22.5 0.00 0.00 0.00 28 1020.9
20260905135029 30 305 11.3 17.7 0.00 0.00 0.00 27 1020.8
20260905134523 30 310 16.1 22.5 0.00 0.00 0.00 26 1020.9
20260905133511 31 305 12.9 20.9 0.00 0.00 0.00 25 1020.8
20260905133005 31 304 16.1 24.1 0.00 0.00 0.00 24 1020.9
20260905132459 31 307 19.3 29.0 0.00 0.00 0.00 25 1020.9
20260905131953 31 305 14.5 24.1 0.00 0.00 0.00 26 1021.0
20260905131445 31 302 17.7 24.1 0.00 0.00 0.00 25 1021.0
20260905130940 31 301 19.3 25.7 0.00 0.00 0.00 25 1020.7
20260905130434 31 301 19.3 25.7 0.00 0.00 0.00 25 1021.0
20260905125927 31 315 16.1 25.7 0.00 0.00 0.00 25 1021.0
20260905125422 30 314 17.7 25.7 0.00 0.00 0.00 26 1021.1
20260905124915 31 310 17.7 22.5 0.00 0.00 0.00 25 1021.0
20260905124409 31 305 14.5 19.3 0.00 0.00 0.00 27 1021.1
20260905123902 30 299 17.7 22.5 0.00 0.00 0.00 28 1021.2
20260905123356 29 314 17.7 22.5 0.00 0.00 0.00 27 1021.2
20260905122851 29 309 17.7 20.9 0.00 0.00 0.00 27 1021.1
20260905122344 29 305 17.7 24.1 0.00 0.00 0.00 28 1021.2
20260905121837 29 308 20.9 32.2 0.00 0.00 0.00 29 1021.2
20260905121332 28 306 19.3 27.4 0.00 0.00 0.00 30 1021.2
20260905120825 27 314 16.1 25.7 0.00 0.00 0.00 32 1021.4
20260905120319 28 311 16.1 20.9 0.00 0.00 0.00 30 1021.4
20260905115814 28 302 14.5 20.9 0.00 0.00 0.00 32 1021.5
20260905115812 28 302 14.5 20.9 0.00 0.00 0.00 32 1021.5
20260905115307 27 306 16.1 22.5 0.00 0.00 0.00 32 1021.4
20260905114801 28 314 19.3 27.4 0.00 0.00 0.00 30 1021.4
20260905114255 27 304 16.1 20.9 0.00 0.00 0.00 33 1021.5
20260905113749 27 299 12.9 20.9 0.00 0.00 0.00 34 1021.5
20260905113243 27 316 12.9 20.9 0.00 0.00 0.00 35 1021.6
20260905113241 27 316 12.9 20.9 0.00 0.00 0.00 35 1021.6
20260905112735 27 317 17.7 25.7 0.00 0.00 0.00 34 1021.7
20260905112230 26 300 14.5 20.9 0.00 0.00 0.00 35 1021.6
20260905111723 27 310 11.3 14.5 0.00 0.00 0.00 35 1021.7
20260905111218 27 305 12.9 19.3 0.00 0.00 0.00 35 1021.6
20260905110711 27 292 12.9 19.3 0.00 0.00 0.00 36 1021.7
20260905110205 27 309 14.5 20.9 0.00 0.00 0.00 35 1021.7
20260905105659 28 316 14.5 20.9 0.00 0.00 0.00 33 1021.7
20260905105153 28 303 14.5 24.1 0.00 0.00 0.00 34 1021.6
20260905104647 27 316 12.9 16.1 0.00 0.00 0.00 37 1021.7
20260905103634 26 306 12.9 27.4 0.00 0.00 0.00 37 1021.4
20260905103127 26 317 14.5 19.3 0.00 0.00 0.00 40 1021.9
20260905102621 25 301 14.5 19.3 0.00 0.00 0.00 42 1021.6
20260905102115 25 305 17.7 27.4 0.00 0.00 0.00 42 1021.6
20260905101609 24 307 11.3 17.7 0.00 0.00 0.00 41 1021.8
20260905101103 25 301 12.9 19.3 0.00 0.00 0.00 41 1022.0
20260905100556 25 311 14.5 19.3 0.00 0.00 0.00 43 1021.8
20260905100051 23 297 12.9 17.7 0.00 0.00 0.00 44 1021.9
20260905095544 23 275 9.7 14.5 0.00 0.00 0.00 46 1021.7
20260905095038 23 303 12.9 24.1 0.00 0.00 0.00 44 1021.9
20260905094531 23 313 11.3 16.1 0.00 0.00 0.00 47 1021.8
20260905094027 23 305 11.3 19.3 0.00 0.00 0.00 47 1021.8
20260905094025 23 305 11.3 19.3 0.00 0.00 0.00 47 1021.8
20260905093520 22 294 11.3 19.3 0.00 0.00 0.00 48 1021.9
20260905093014 22 295 12.9 17.7 0.00 0.00 0.00 49 1022.0
20260905092001 21 299 11.3 16.1 0.00 0.00 0.00 52 1022.0
20260905091454 21 293 12.9 24.1 0.00 0.00 0.00 53 1021.9
20260905090949 21 289 14.5 20.9 0.00 0.00 0.00 54 1021.6
20260905090443 20 285 12.9 19.3 0.00 0.00 0.00 57 1021.8
20260905085936 19 284 11.3 16.1 0.00 0.00 0.00 60 1022.0
20260905085429 18 294 12.9 20.9 0.00 0.00 0.00 63 1021.9
20260905084923 18 309 12.9 16.1 0.00 0.00 0.00 65 1021.9
20260905084417 18 294 11.3 17.7 0.00 0.00 0.00 66 1021.8
20260905083911 18 307 12.9 16.1 0.00 0.00 0.00 65 1022.0
20260905083405 17 304 14.5 17.7 0.00 0.00 0.00 65 1021.8
20260905082859 17 312 14.5 22.5 0.00 0.00 0.00 65 1021.9
20260905082353 17 309 12.9 19.3 0.00 0.00 0.00 68 1022.0
20260905081846 17 311 11.3 16.1 0.00 0.00 0.00 69 1021.9
20260905081341 17 314 12.9 16.1 0.00 0.00 0.00 70 1021.8
20260905080834 17 301 12.9 20.9 0.00 0.00 0.00 71 1021.6
20260905080329 17 305 12.9 17.7 0.00 0.00 0.00 72 1021.5
20260905080327 17 305 12.9 17.7 0.00 0.00 0.00 72 1021.5
20260905075822 16 297 11.3 20.9 0.00 0.00 0.00 72 1021.5
20260905075316 16 307 11.3 19.3 0.00 0.00 0.00 72 1021.7
20260905074809 16 298 11.3 17.7 0.00 0.00 0.00 74 1021.7
20260905074303 16 320 16.1 19.3 0.00 0.00 0.00 74 1021.5
20260905073757 16 311 14.5 19.3 0.00 0.00 0.00 75 1021.4
20260905073251 16 308 12.9 17.7 0.00 0.00 0.00 75 1021.5
20260905072745 16 306 9.7 14.5 0.00 0.00 0.00 75 1021.4
20260905072239 16 310 9.7 12.9 0.00 0.00 0.00 76 1021.5
20260905071732 15 306 9.7 16.1 0.00 0.00 0.00 75 1021.5
20260905071226 15 315 9.7 12.9 0.00 0.00 0.00 77 1021.5
20260905070720 15 308 8.0 11.3 0.00 0.00 0.00 78 1021.4
20260905070213 15 310 9.7 12.9 0.00 0.00 0.00 78 1021.3
20260905065707 15 316 8.0 11.3 0.00 0.00 0.00 78 1021.4
20260905065201 15 305 8.0 9.7 0.00 0.00 0.00 78 1021.3
20260905064656 15 310 9.7 16.1 0.00 0.00 0.00 78 1021.1
20260905064149 15 315 9.7 12.9 0.00 0.00 0.00 79 1021.0
20260905063642 15 302 6.4 11.3 0.00 0.00 0.00 80 1021.1
20260905063136 15 292 3.2 4.8 0.00 0.00 0.00 82 1021.1
20260905062631 14 250 3.2 4.8 0.00 0.00 0.00 82 1021.1
20260905062125 14 273 1.6 4.8 0.00 0.00 0.00 83 1021.2
20260905061619 13 286 1.6 3.2 0.00 0.00 0.00 83 1021.1
20260905061112 13 284 3.2 6.4 0.00 0.00 0.00 83 1021.1
20260905060606 13 268 1.6 3.2 0.00 0.00 0.00 83 1021.1
20260905060059 13 270 1.6 4.8 0.00 0.00 0.00 82 1021.0
20260905055554 13 265 3.2 4.8 0.00 0.00 0.00 82 1021.0
20260905055048 13 291 3.2 4.8 0.00 0.00 0.00 82 1020.9
20260905054541 13 282 3.2 8.0 0.00 0.00 0.00 82 1020.9
20260905054035 13 306 3.2 4.8 0.00 0.00 0.00 82 1020.8
20260905053023 13 289 4.8 6.4 0.00 0.00 0.00 82 1020.6
20260905052517 13 287 3.2 4.8 0.00 0.00 0.00 82 1020.5
20260905052011 13 282 4.8 8.0 0.00 0.00 0.00 82 1020.5
20260905051505 13 297 6.4 9.7 0.03 0.00 0.00 82 1020.4
20260905050959 13 286 3.2 4.8 0.03 0.00 0.00 83 1020.3
20260905050452 13 270 3.2 4.8 0.03 0.00 0.00 82 1020.1
20260905045946 13 269 1.6 3.2 0.03 0.00 0.00 82 1020.1
20260905045440 13 276 1.6 3.2 0.03 0.00 0.00 82 1020.0
20260905044934 13 241 1.6 3.2 0.03 0.00 0.00 82 1019.8
20260905044427 13 235 3.2 4.8 0.05 0.00 0.00 82 1019.6
20260905043921 13 227 1.6 4.8 0.08 0.00 0.00 83 1019.6
20260905043416 13 272 3.2 6.4 0.10 0.00 0.00 83 1019.8
20260905042910 13 311 4.8 6.4 0.10 0.00 0.00 83 1019.9
20260905042908 13 311 4.8 6.4 0.10 0.00 0.00 83 1019.9
20260905042403 13 310 4.8 8.0 0.13 0.00 0.00 83 1020.0
20260905041857 13 274 4.8 6.4 0.13 0.00 0.00 82 1019.7
20260905041333 13 250 3.2 4.8 0.13 0.00 0.00 81 1019.3
20260905040827 13 247 4.8 9.7 0.13 0.00 0.00 80 1019.1
20260905040322 13 254 3.2 4.8 0.15 0.00 0.00 79 1019.0
20260905035815 13 242 4.8 8.0 0.18 0.00 0.00 78 1019.0
20260905035309 14 241 4.8 8.0 0.18 0.00 0.00 79 1018.9
20260905034803 14 271 3.2 8.0 0.18 0.00 0.00 79 1019.4
20260905034243 15 268 3.2 9.7 0.15 0.00 0.00 78 1019.4
20260905033724 15 270 4.8 4.8 0.13 0.00 0.00 78 1019.3
20260905033211 15 272 4.8 9.7 0.10 0.00 0.00 76 1019.3
20260905032705 15 266 4.8 8.0 0.10 0.00 0.00 76 1019.5
20260905032142 16 254 4.8 6.4 0.08 0.00 0.00 76 1019.3
20260905031636 16 254 4.8 8.0 0.10 0.00 0.00 77 1019.5
20260905031123 16 291 3.2 4.8 0.10 0.00 0.00 78 1019.5
20260905030618 16 307 3.2 4.8 0.10 0.00 0.00 78 1019.5
20260905030104 16 307 1.6 3.2 0.08 0.00 0.00 78 1019.4
20260905025554 16 302 1.6 3.2 0.05 0.00 0.00 77 1019.2
20260905025047 16 301 1.6 3.2 0.05 0.00 0.00 76 1019.5
20260905024542 16 290 1.6 3.2 0.05 0.00 0.00 76 1019.0
20260905024035 16 270 1.6 3.2 0.05 0.00 0.00 75 1019.0